Baltimore, MD

2:43 PM EDT on May 22, 2017 (GMT -0400)
Baltimore-Washington International

Weather History for KBWI - February, 2010

Change the Weather History Date:

Thursday, February 11, 2010

  Actual Average Record
Temperature  
Mean Temperature 31 °F 35 °F  
Max Temperature 38 °F 44 °F 72 °F (1887)
Min Temperature 23 °F 26 °F -6 °F (1899)
Degree Days  
Heating Degree Days 34 30  
Month to date heating degree days 414 338  
Since 1 July heating degree days 3124 3114  
Cooling Degree Days 0 0  
Month to date cooling degree days 0 0  
Year to date cooling degree days 0 0  
Moisture  
Dew Point 19 °F    
Average Humidity 60    
Maximum Humidity 75    
Minimum Humidity 44    
Precipitation  
Precipitation 0.00 in 0.10 in 3.26 in (1983)
Month to date precipitation 3.40 1.13  
Year to date precipitation 5.64 4.18  
Snow  
Snow 0.00 in 0.30 in 22.80 in (1983)
Month to date snowfall 49.2 3.5  
Since 1 July snowfall 79.9 13.7  
Snow Depth 31.00 in    
Sea Level Pressure  
Sea Level Pressure 29.76 in    
Wind  
Wind Speed 12 mph (WNW)    
Max Wind Speed 24 mph    
Max Gust Speed 35 mph    
Visibility 10 miles    
Events      
T = Trace of Precipitation, MM = Missing Value Source: NWS Daily Summary

Daily Weather History Graph

Daily Weather History Graph

Search for Another Location

Airport or City:

Trip Planner

Search our weather history database for the weather conditions in past years. The results will help you decide how hot, cold, wet, or windy it might be!

Date:

Astronomy

Feb. 11, 2010 Rise Set
Actual Time 7:03 AM EST 5:39 PM EST
Civil Twilight 6:35 AM EST 6:06 PM EST
Nautical Twilight 6:04 AM EST 6:38 PM EST
Astronomical Twilight 5:32 AM EST 7:09 PM EST
Moon 5:37 AM EST (2/11) 3:33 PM EST (2/11)
Length of Visible Light 11h 31m
Length of Day
10h 36m
Waning Crescent, 5% of the Moon is Illuminated
Feb 11
Waning Crescent
Feb 13
New
Feb 21
First Quarter
Feb 28
Full
Mar 7
Last Quarter

Hourly Weather History & Observations

Time (EST) Temp. Windchill Dew Point Humidity Pressure Visibility Wind Dir Wind Speed Gust Speed Precip Events Conditions
12:54 AM 28.9 °F 16.5 °F 19.9 °F 69% 29.57 in 10.0 mi WNW 18.4 mph 29.9 mph N/A   Scattered Clouds
1:54 AM 28.9 °F 18.6 °F 19.9 °F 69% 29.60 in 10.0 mi NW 12.7 mph 24.2 mph N/A   Mostly Cloudy
2:54 AM 28.9 °F 19.8 °F 21.0 °F 72% 29.63 in 10.0 mi WNW 10.4 mph 25.3 mph N/A   Scattered Clouds
3:54 AM 28.0 °F 20.0 °F 19.9 °F 72% 29.67 in 10.0 mi WNW 8.1 mph - N/A   Scattered Clouds
4:54 AM 28.0 °F 19.3 °F 19.9 °F 72% 29.69 in 10.0 mi West 9.2 mph - N/A   Mostly Cloudy
5:54 AM 28.0 °F 17.0 °F 19.9 °F 72% 29.69 in 10.0 mi WNW 13.8 mph - N/A   Scattered Clouds
6:54 AM 27.0 °F 20.5 °F 19.0 °F 72% 29.72 in 10.0 mi WNW 5.8 mph - N/A   Mostly Cloudy
7:54 AM 28.9 °F 18.2 °F 19.0 °F 67% 29.73 in 10.0 mi WNW 13.8 mph 20.7 mph N/A   Mostly Cloudy
8:54 AM 30.0 °F 18.7 °F 19.0 °F 64% 29.76 in 10.0 mi WNW 16.1 mph 24.2 mph N/A   Scattered Clouds
9:54 AM 32.0 °F 21.2 °F 19.0 °F 59% 29.77 in 10.0 mi WNW 16.1 mph 27.6 mph N/A   Partly Cloudy
10:54 AM 34.0 °F 24.2 °F 19.0 °F 54% 29.80 in 10.0 mi WNW 15.0 mph 21.9 mph N/A   Partly Cloudy
11:54 AM 34.0 °F 22.4 °F 19.9 °F 56% 29.80 in 10.0 mi West 20.7 mph 26.5 mph N/A   Scattered Clouds
12:54 PM 36.0 °F 25.6 °F 18.0 °F 48% 29.78 in 10.0 mi WNW 18.4 mph 27.6 mph N/A   Scattered Clouds
1:54 PM 37.0 °F 26.7 °F 18.0 °F 46% 29.78 in 10.0 mi WNW 19.6 mph 28.8 mph N/A   Scattered Clouds
2:54 PM 37.0 °F 29.8 °F 19.0 °F 48% 29.77 in 10.0 mi WNW 10.4 mph 21.9 mph N/A   Scattered Clouds
3:54 PM 37.0 °F 26.7 °F 19.0 °F 48% 29.78 in 10.0 mi WNW 19.6 mph 28.8 mph N/A   Scattered Clouds
4:54 PM 36.0 °F 27.5 °F 19.9 °F 52% 29.80 in 10.0 mi WNW 12.7 mph 23.0 mph N/A   Scattered Clouds
5:54 PM 33.1 °F 24.9 °F 19.0 °F 56% 29.82 in 10.0 mi West 10.4 mph - N/A   Partly Cloudy
6:54 PM 30.9 °F 20.2 °F 19.9 °F 64% 29.83 in 10.0 mi WNW 15.0 mph - N/A   Clear
7:54 PM 30.9 °F 22.2 °F 19.0 °F 61% 29.86 in 10.0 mi West 10.4 mph - N/A   Clear
8:54 PM 27.0 °F 21.6 °F 18.0 °F 69% 29.87 in 10.0 mi West 4.6 mph - N/A   Clear
9:54 PM 25.0 °F 15.5 °F 16.0 °F 69% 29.86 in 10.0 mi WNW 9.2 mph - N/A   Clear
10:54 PM 25.0 °F 20.7 °F 16.0 °F 69% 29.86 in 10.0 mi West 3.5 mph - N/A   Clear
11:54 PM 25.0 °F 19.3 °F 16.0 °F 69% 29.89 in 10.0 mi WSW 4.6 mph - N/A   Scattered Clouds